Regional Weather Roundup
Issued by NWS Burlington, VT

Home | Current Version | Previous Version | Text Only | Print | Product List | Glossary On
Versions: 1 2 3 4 5 6 7 8 9 10 11 12 13 14 15 16 17 18 19 20 21 22 23 24 25 26 27 28 29 30 31 32 33 34 35 36 37 38 39 40 41 42 43 44 45 46 47 48 49 50
000
ASUS41 KBTV 141010
RWRBTV
VERMONT REGIONAL WEATHER ROUNDUP
NATIONAL WEATHER SERVICE BURLINGTON VT
500 AM EST THU DEC 14 2017

NOTE: "FAIR" INDICATES FEW OR NO CLOUDS BELOW 12,000 FEET WITH NO
SIGNIFICANT WEATHER AND/OR OBSTRUCTIONS TO VISIBILITY.

* THESE REPORTS ARE NOT UNDER NWS QUALITY CONTROL AND/OR DO NOT
  REPORT WEATHER SUCH AS PRECIPITATION AND FOG.

VTZ001>019-141100-
_____VERMONT_____


CITY           SKY/WX    TMP DP  RH WIND       PRES   REMARKS
BURLINGTON     CLOUDY    10   3  73 NE3       29.55S
MONTPELIER     MOCLDY     0  -2  91 CALM      29.49F
MORRISVILLE    CLOUDY     1  -2  87 CALM      29.51S
ST. JOHNSBURY*   N/A      2   0  91 MISG      29.49R
LYNDONVILLE*   FAIR       5  -1  76 W3        29.46S
MIDDLEBURY*    CLOUDY    11   3  69 SE3       29.54S
RUTLAND*       CLOUDY     8   4  83 CALM      29.54R
SPRINGFIELD    CLOUDY    13   7  77 CALM      29.55R
HIGHGATE*      FAIR       4  -3  71 NW5       29.59R WCI  -5
NEWPORT*       FAIR       2  -4  74 S8        29.49S WCI -11
SUTTON*          N/A      0 N/A N/A MISG        N/A

_____LAKE CHAMPLAIN_____


CITY           SKY/WX    TMP DP  RH WIND       PRES   REMARKS
BURTON ISLAND*   N/A     10   7  85 N5G12       N/A  WCI   2
COLCHESTER RF*   N/A     14   3  62 N10         N/A  WCI   1

$$

NYZ007-026>031-035-052-083-087-141100-
_____NORTHERN NEW YORK_____


CITY           SKY/WX    TMP DP  RH WIND       PRES   REMARKS
PLATTSBURGH    CLOUDY     8  -3  61 NW8       29.57R WCI  -4
SARANAC LAKE   CLOUDY    -6  -9  86 CALM      29.45R
MASSENA        CLOUDY     0  -6  76 W7        29.66R WCI -13
OGDENSBURG*    FAIR       0  -5  79 NW8       29.65R WCI -14
POTSDAM*       CLOUDY    -4  -8  84 W5        29.63R WCI -15
WATERTOWN      CLOUDY     1  -4  79 NE9       29.65R WCI -14
FT DRUM        CLEAR     -1  -7  75 N6        29.60R WCI -13
ALBANY         LGT SNOW  18  13  80 CALM      29.59S
GLENS FALLS    FLURRIES  10   7  87 CALM      29.57S

$$
NHZ002-005-011-141100-
_____NEW HAMPSHIRE_____


CITY           SKY/WX    TMP DP  RH WIND       PRES   REMARKS
LEBANON        PTCLDY    10   7  87 CALM      29.52S
KEENE          CLOUDY    17  11  77 S5        29.56R WCI  10
MT WASHINGTON  BLWGSNOW  -9  -9 100 W70G78      N/A  VSB 1/16WCI -49
PLYMOUTH       CLOUDY    11   3  70 NW3       29.52S
WHITEFIELD     CLOUDY     8   1  73 SW3       29.45S

$$

_____REGIONAL QUEBEC LOCATIONS_____


CITY           SKY/WX    TMP DP  RH WIND       PRES   REMARKS
MONTREAL       MOCLDY     0  -8  71 W15G21    29.59R WCI -20
QUEBEC CITY    CLOUDY     1  -6  71 W21G30    29.40R WCI -20
SHERBROOKE     MOCLDY     1  -6  71 W9        29.48R WCI -14

_____REGIONAL ONTARIO LOCATIONS_____


CITY           SKY/WX    TMP DP  RH WIND       PRES   REMARKS
OTTAWA         PTCLDY    -2 -11  65 NW9       29.63R WCI -18

______KEY______
VSB  - VISIBILITY IN MILES
WCI  - WIND CHILL INDEX
HX   - HEAT INDEX
$$
NNNN




USA.gov is the U.S. government's official web portal to all federal, state and local government web resources and services.